Back to catalog

STARLINK-36824

AliveCommunicationsVLEO
NORAD 67953·PAYLOAD·🇺🇸 United States

Launched Feb 24, 2026 from Vandenberg Space Force Base

Loading…

Next Passes (next 24 hours)

TLE

FreshSource: CelesTrak SupGP

Epoch: Sep 14, 2026, 22:42 UTC

1 67953C 26037X   26257.94631944 -.00010239  00000+0 -37082-3 0  2576
2 67953  43.0033 202.2064 0001345 261.4143  28.2203 15.27585826    12

Track STARLINK-36824 in real time with AllMySat

Download on the App Store